Location: Barcelona
(41.3830°N, 2.1830°E)
Time: 22:47:48
(UTC+01:00)

ISS - Pass Details

Date: 17 January 2018
Orbit: 402 x 407 km, 51.6° (Epoch: 23 January)

Event Time Altitude Azimuth Distance (km) Brightness Sun altitude
Exits shadow 06:52:21 16° 225° (SW) 1,169 -1.8 -15.2°
Drops below altitude 10° 06:54:14 10° 190° (S) 1,457 -1.0 -14.8°
Sets 06:56:53 0° 167° (SSE) 2,312 0.4 -14.3°
